Location: Mercogliano
(40.9167°N, 14.7333°E)
Time: 05:48:03
(UTC+00:00)

Cosmos 1842 - Pass Details

Date: 18 September 2020
Orbit: 521 x 536 km, 82.5° (Epoch: 26 October)

Event Time Altitude Azimuth Distance (km) Brightness Sun altitude
Rises 17:27:33 0° 359° (N) 2,659 6.9 -5.2°
Reaches altitude 10° 17:29:47 10° 7° (N) 1,766 5.9 -5.6°
Maximum altitude 17:33:27 41° 78° (ENE) 774 3.7 -6.3°
Drops below altitude 10° 17:37:06 10° 150° (SSE) 1,756 5.5 -7.0°
Sets 17:39:19 0° 157° (SSE) 2,641 6.5 -7.4°
